TimeCST,TemperatureF,Dew PointF,Humidity,Sea Level PressureIn,VisibilityMPH,Wind Direction,Wind SpeedMPH,Gust SpeedMPH,PrecipitationIn,Events,Conditions,WindDirDegrees,DateUTC
12:01 AM,57.2,57.2,100,29.93,1.8,Calm,Calm,-,N/A,,Mostly Cloudy,0,2012-12-07 06:01:00
12:05 AM,57.2,55.4,94,29.93,0.8,Calm,Calm,-,N/A,,Mostly Cloudy,0,2012-12-07 06:05:00
12:25 AM,55.4,55.4,100,29.92,0.5,Calm,Calm,-,N/A,Fog,Fog,0,2012-12-07 06:25:00
12:48 AM,55.4,55.4,100,29.92,1.0,South,3.5,-,N/A,,Overcast,180,2012-12-07 06:48:00
12:53 AM,55.9,55.9,100,29.92,2.5,South,3.5,-,N/A,,Mostly Cloudy,180,2012-12-07 06:53:00
1:00 AM,55.4,55.4,100,29.92,3.0,South,3.5,-,N/A,,Overcast,190,2012-12-07 07:00:00
1:05 AM,55.4,55.4,100,29.92,1.8,SSW,3.5,-,N/A,,Overcast,200,2012-12-07 07:05:00
1:20 AM,55.4,55.4,100,29.92,3.0,South,3.5,-,N/A,,Overcast,180,2012-12-07 07:20:00
1:31 AM,55.4,55.4,100,29.92,1.8,South,3.5,-,N/A,,Mostly Cloudy,190,2012-12-07 07:31:00
1:53 AM,55.9,55.9,100,29.92,2.0,SSE,3.5,-,N/A,,Overcast,150,2012-12-07 07:53:00
2:13 AM,57.2,55.4,94,29.92,4.0,SSE,4.6,-,N/A,,Mostly Cloudy,150,2012-12-07 08:13:00
2:53 AM,55.9,55.9,100,29.91,2.5,SSE,3.5,-,N/A,,Mostly Cloudy,160,2012-12-07 08:53:00
3:09 AM,55.4,55.4,100,29.91,0.8,SSE,3.5,-,N/A,,Mostly Cloudy,160,2012-12-07 09:09:00
3:16 AM,55.4,55.4,100,29.90,0.5,SSE,4.6,-,N/A,Fog,Fog,160,2012-12-07 09:16:00
3:24 AM,55.4,55.4,100,29.90,1.0,SSE,4.6,-,N/A,,Mostly Cloudy,160,2012-12-07 09:24:00
3:33 AM,55.4,55.4,100,29.90,2.5,SSE,3.5,-,N/A,,Overcast,160,2012-12-07 09:33:00
3:48 AM,55.4,55.4,100,29.90,3.0,South,3.5,-,N/A,,Overcast,190,2012-12-07 09:48:00
3:49 AM,55.9,55.9,100,29.90,3.0,South,3.5,-,N/A,,Overcast,190,2012-12-07 09:49:00
4:15 AM,55.4,55.4,100,29.90,2.5,South,5.8,-,N/A,,Mostly Cloudy,170,2012-12-07 10:15:00
4:24 AM,55.4,55.4,100,29.90,1.8,South,5.8,-,N/A,,Mostly Cloudy,170,2012-12-07 10:24:00
4:29 AM,55.4,55.4,100,29.90,3.0,South,3.5,-,N/A,,Mostly Cloudy,180,2012-12-07 10:29:00
4:41 AM,55.4,55.4,100,29.90,4.0,South,4.6,-,N/A,,Overcast,180,2012-12-07 10:41:00
4:53 AM,57.0,57.0,100,29.90,5.0,South,4.6,-,N/A,,Overcast,190,2012-12-07 10:53:00
5:48 AM,57.2,57.2,100,29.91,6.0,South,4.6,-,N/A,,Mostly Cloudy,190,2012-12-07 11:48:00
5:53 AM,57.9,57.0,97,29.91,6.0,South,5.8,-,N/A,,Mostly Cloudy,190,2012-12-07 11:53:00
6:00 AM,57.2,57.2,100,29.92,6.0,SSW,5.8,-,N/A,,Mostly Cloudy,200,2012-12-07 12:00:00
6:18 AM,57.2,57.2,100,29.92,5.0,South,5.8,-,0.01,,Mostly Cloudy,180,2012-12-07 12:18:00
6:27 AM,57.2,57.2,100,29.92,4.0,South,3.5,-,0.01,,Mostly Cloudy,180,2012-12-07 12:27:00
6:45 AM,57.2,57.2,100,29.93,5.0,South,4.6,-,0.01,,Overcast,180,2012-12-07 12:45:00
6:48 AM,57.2,57.2,100,29.93,5.0,South,4.6,-,0.01,,Overcast,180,2012-12-07 12:48:00
6:53 AM,57.9,57.0,97,29.93,4.0,South,5.8,-,0.01,,Overcast,180,2012-12-07 12:53:00
7:53 AM,59.0,57.9,96,29.93,3.0,South,3.5,-,N/A,,Overcast,180,2012-12-07 13:53:00
8:26 AM,59.0,59.0,100,29.93,4.0,South,5.8,-,N/A,,Overcast,180,2012-12-07 14:26:00
8:53 AM,60.1,59.0,96,29.94,5.0,South,5.8,-,N/A,,Overcast,190,2012-12-07 14:53:00
9:50 AM,60.8,57.2,88,29.94,7.0,SSW,5.8,-,N/A,,Overcast,210,2012-12-07 15:50:00
9:53 AM,60.1,57.9,93,29.94,7.0,SSW,6.9,-,N/A,,Overcast,210,2012-12-07 15:53:00
10:13 AM,60.8,57.2,88,29.94,7.0,SW,4.6,-,N/A,,Overcast,220,2012-12-07 16:13:00
10:53 AM,61.0,57.9,90,29.93,7.0,SSW,5.8,-,N/A,,Overcast,210,2012-12-07 16:53:00
11:18 AM,60.8,57.2,88,29.92,9.0,Variable,5.8,-,N/A,,Overcast,0,2012-12-07 17:18:00
11:26 AM,62.6,59.0,88,29.91,9.0,Variable,6.9,-,N/A,,Overcast,0,2012-12-07 17:26:00
11:37 AM,62.6,57.2,82,29.91,10.0,SSW,8.1,-,N/A,,Overcast,200,2012-12-07 17:37:00
11:53 AM,62.1,57.0,84,29.89,10.0,SSW,9.2,-,N/A,,Overcast,210,2012-12-07 17:53:00
12:53 PM,64.0,57.0,78,29.87,10.0,South,10.4,-,N/A,,Overcast,190,2012-12-07 18:53:00
1:53 PM,64.9,55.9,73,29.85,10.0,SSW,8.1,-,N/A,,Mostly Cloudy,210,2012-12-07 19:53:00
2:53 PM,66.0,55.9,70,29.83,10.0,South,12.7,-,N/A,,Partly Cloudy,190,2012-12-07 20:53:00
3:53 PM,66.0,55.9,70,29.83,10.0,SSW,8.1,-,N/A,,Clear,210,2012-12-07 21:53:00
4:53 PM,63.0,55.9,78,29.84,10.0,SSW,5.8,-,N/A,,Scattered Clouds,200,2012-12-07 22:53:00
5:53 PM,63.0,55.0,75,29.86,10.0,SW,5.8,-,N/A,,Mostly Cloudy,230,2012-12-07 23:53:00
7:53 PM,60.1,53.1,78,29.89,10.0,Calm,Calm,-,N/A,,Mostly Cloudy,0,2012-12-08 01:53:00
8:53 PM,59.0,54.0,83,29.88,10.0,SE,4.6,-,N/A,,Overcast,130,2012-12-08 02:53:00
9:53 PM,57.9,55.0,90,29.88,9.0,South,3.5,-,N/A,,Overcast,170,2012-12-08 03:53:00
10:53 PM,57.9,54.0,87,29.88,10.0,South,3.5,-,N/A,,Overcast,170,2012-12-08 04:53:00
11:53 PM,59.0,55.0,87,29.87,10.0,South,5.8,-,N/A,,Overcast,180,2012-12-08 05:53:00